Location: Alsip
(41.6689°N, 87.7387°W)
Time: 14:19:41
(UTC+00:00)

Cosmos 1570 Rocket - Pass Details

Date: 14 July 2020
Orbit: 763 x 788 km, 74.1° (Epoch: 13 August)

Event Time Altitude Azimuth Distance (km) Brightness Sun altitude
Rises 09:19:03 0° 341° (NNW) 3,246 7.6 -11.4°
Reaches altitude 10° 09:21:26 10° 342° (NNW) 2,319 6.8 -11.0°
Maximum altitude 09:26:43 81° 70° (ENE) 788 4.2 -10.3°
Drops below altitude 10° 09:32:00 10° 158° (SSE) 2,319 6.3 -9.6°
Sets 09:34:22 0° 160° (SSE) 3,247 7.0 -9.2°
